Weather History for Port Huron, MI

Change the Weather History Date:

Friday, August 30, 2013

  Actual Average (KMTC) Record (KMTC)
Temperature  
Mean Temperature 72 °F -  
Max Temperature 86 °F 79 °F 98 °F (1953)
Min Temperature 59 °F 60 °F 42 °F (1976)
Cooling Degree Days 8    
Growing Degree Days 22 (Base 50)    
Moisture  
Dew Point 67 °F    
Average Humidity 84    
Maximum Humidity 100    
Minimum Humidity 55    
Precipitation  
Precipitation 0.00 in - - ()
Sea Level Pressure  
Sea Level Pressure 29.89 in    
Wind  
Wind Speed 3 mph (SW)    
Max Wind Speed 16 mph    
Max Gust Speed 29 mph    
Visibility 6 miles    
Events Fog , Rain    
Averages and records for this station are not official NWS values.
T = Trace of Precipitation, MM = Missing Value Source: NWS Daily Summary

Daily Weather History Graph

Daily Weather History Graph

Search for Another Location

Airport:

Trip Planner

Search our weather history database for the weather conditions in past years. The results will help you decide how hot, cold, wet, or windy it might be!

Date:

Astronomy

Aug. 30, 2013 Rise Set
Actual Time 6:52 AM EDT 8:07 PM EDT
Civil Twilight 6:23 AM EDT 8:36 PM EDT
Nautical Twilight 5:48 AM EDT 9:11 PM EDT
Astronomical Twilight 5:11 AM EDT 9:48 PM EDT
Moon 1:25 AM EDT (8/30) 4:26 PM EDT (8/30)
Length of Visible Light 14h 13m
Length of Day
13h 14m
Waning Crescent, 29% of the Moon is Illuminated
Aug 30
Waning Crescent
Sep 5
New
Sep 12
First Quarter
Sep 19
Full
Sep 26
Last Quarter

Hourly Weather History & Observations

Time (EDT) Temp. Heat Index Dew Point Humidity Pressure Visibility Wind Dir Wind Speed Gust Speed Precip Events Conditions
12:16 AM 64.4 °F - 64.4 °F 100% 30.01 in 0.2 mi Calm Calm - N/A Fog Fog
12:36 AM 64.4 °F - 64.4 °F 100% 30.02 in 0.5 mi Calm Calm - N/A Fog Fog
12:56 AM 62.6 °F - 62.6 °F 100% 30.01 in 0.2 mi Calm Calm - N/A Fog Fog
1:16 AM 64.4 °F - 64.4 °F 100% 30.02 in 0.5 mi Calm Calm - N/A Fog Fog
1:36 AM 64.4 °F - 64.4 °F 100% 30.01 in 1.5 mi Calm Calm - N/A   Mist
1:56 AM 62.6 °F - 62.6 °F 100% 30.01 in 0.2 mi Calm Calm - N/A Fog Fog
2:16 AM 62.6 °F - 62.6 °F 100% 30.01 in 0.2 mi Calm Calm - N/A Fog Fog
2:36 AM 60.8 °F - 60.8 °F 100% 30.01 in 0.5 mi Calm Calm - N/A Fog Fog
2:56 AM 62.6 °F - 62.6 °F 100% 30.00 in 0.5 mi Calm Calm - N/A Fog Fog
3:16 AM 60.8 °F - 60.8 °F 100% 30.00 in 0.2 mi Calm Calm - N/A Fog Fog
3:36 AM 62.6 °F - 62.6 °F 100% 29.99 in 1.5 mi Calm Calm - N/A   Scattered Clouds
3:56 AM 62.6 °F - 62.6 °F 100% 29.99 in 4.0 mi Calm Calm - N/A   Clear
4:16 AM 62.6 °F - 62.6 °F 100% 29.99 in 5.0 mi Calm Calm - N/A   Clear
4:36 AM 60.8 °F - 60.8 °F 100% 29.99 in 0.5 mi Calm Calm - N/A Fog Fog
4:56 AM 60.8 °F - 60.8 °F 100% 29.99 in 0.5 mi Calm Calm - N/A Fog Fog
5:16 AM 60.8 °F - 60.8 °F 100% 29.98 in 0.2 mi Calm Calm - N/A Fog Fog
5:36 AM 59.0 °F - 59.0 °F 100% 29.98 in 0.5 mi Calm Calm - N/A Fog Fog
5:56 AM 60.8 °F - 60.8 °F 100% 29.97 in 0.8 mi Calm Calm - N/A   Mostly Cloudy
6:16 AM 60.8 °F - 60.8 °F 100% 29.97 in 0.5 mi Calm Calm - N/A Fog Fog
6:36 AM 60.8 °F - 60.8 °F 100% 29.97 in 0.5 mi Calm Calm - N/A Fog Fog
6:56 AM 60.8 °F - 60.8 °F 100% 29.97 in 0.2 mi Calm Calm - N/A Fog Fog
7:16 AM 60.8 °F - 60.8 °F 100% 29.96 in 1.0 mi South 3.5 mph - N/A   Mist
7:36 AM 64.4 °F - 64.4 °F 100% 29.97 in 2.5 mi Calm Calm - N/A   Clear
7:56 AM 66.2 °F - 66.2 °F 100% 29.97 in 2.5 mi Calm Calm - N/A   Clear
8:16 AM 66.2 °F - 66.2 °F 100% 29.98 in 2.5 mi Calm Calm - N/A   Clear
8:36 AM 66.2 °F - 66.2 °F 100% 29.98 in 2.5 mi Calm Calm - N/A   Scattered Clouds
8:56 AM 68.0 °F - 68.0 °F 100% 29.97 in 2.5 mi SSW 4.6 mph - N/A   Clear
9:16 AM 69.8 °F - 69.8 °F 100% 29.96 in 3.0 mi SSW 4.6 mph - N/A   Clear
9:36 AM 69.8 °F - 69.8 °F 100% 29.94 in 5.0 mi South 6.9 mph - N/A   Clear
9:56 AM 73.4 °F - 73.4 °F 100% 29.93 in 7.0 mi SSW 10.4 mph - N/A   Clear
10:16 AM 73.4 °F - 69.8 °F 88% 29.93 in 7.0 mi SSW 6.9 mph - N/A   Clear
10:36 AM 75.2 °F - 71.6 °F 89% 29.93 in 7.0 mi SSW 8.1 mph - N/A   Clear
10:56 AM 77.0 °F - 71.6 °F 83% 29.92 in 10.0 mi SW 6.9 mph - N/A   Clear
11:16 AM 77.0 °F - 69.8 °F 78% 29.91 in 10.0 mi SSW 8.1 mph - N/A   Clear
11:36 AM 77.0 °F - 69.8 °F 78% 29.91 in 10.0 mi SW 8.1 mph - N/A   Clear
11:56 AM 80.6 °F 83.9 °F 69.8 °F 70% 29.89 in 10.0 mi SSW 11.5 mph 16.1 mph N/A   Clear
12:16 PM 80.6 °F 83.9 °F 69.8 °F 70% 29.89 in 10.0 mi SSW 9.2 mph - N/A   Clear
12:36 PM 82.4 °F 85.4 °F 68.0 °F 62% 29.89 in 10.0 mi SW 5.8 mph - N/A   Clear
12:56 PM 82.4 °F 86.3 °F 69.8 °F 66% 29.89 in 10.0 mi SW 5.8 mph - N/A   Clear
1:16 PM 82.4 °F 86.3 °F 69.8 °F 66% 29.88 in 10.0 mi SW 8.1 mph - N/A   Clear
1:36 PM 82.4 °F 86.3 °F 69.8 °F 66% 29.88 in 10.0 mi SW 8.1 mph - N/A   Clear
1:56 PM 84.2 °F 89.6 °F 71.6 °F 66% 29.87 in 10.0 mi South 8.1 mph - N/A   Scattered Clouds
2:16 PM 84.2 °F 88.4 °F 69.8 °F 62% 29.87 in 10.0 mi WSW 6.9 mph - N/A   Scattered Clouds
2:36 PM 86.0 °F 90.4 °F 69.8 °F 58% 29.85 in 10.0 mi SSW 10.4 mph - N/A   Scattered Clouds
2:56 PM 86.0 °F 90.4 °F 69.8 °F 58% 29.84 in 10.0 mi SSW 8.1 mph 19.6 mph N/A   Scattered Clouds
3:16 PM 86.0 °F 90.4 °F 69.8 °F 58% 29.81 in 10.0 mi SSW 15.0 mph - N/A   Scattered Clouds
3:36 PM 86.0 °F 89.4 °F 68.0 °F 55% 29.79 in 10.0 mi SW 11.5 mph 17.3 mph N/A   Clear
3:56 PM 86.0 °F 90.4 °F 69.8 °F 58% 29.79 in 10.0 mi SW 5.8 mph 17.3 mph N/A   Clear
4:16 PM 86.0 °F 89.4 °F 68.0 °F 55% 29.79 in 10.0 mi SSW 9.2 mph - N/A   Clear
4:36 PM 86.0 °F 90.4 °F 69.8 °F 58% 29.79 in 10.0 mi SSW 8.1 mph - N/A   Scattered Clouds
4:56 PM 86.0 °F 89.4 °F 68.0 °F 55% 29.78 in 10.0 mi SSW 11.5 mph 16.1 mph N/A   Scattered Clouds
5:16 PM 86.0 °F 90.4 °F 69.8 °F 58% 29.77 in 10.0 mi SSW 6.9 mph - N/A   Scattered Clouds
5:36 PM 86.0 °F 89.4 °F 68.0 °F 55% 29.77 in 10.0 mi SSW 9.2 mph - N/A   Scattered Clouds
5:56 PM 84.2 °F 87.3 °F 68.0 °F 58% 29.76 in 10.0 mi SW 9.2 mph - N/A   Clear
6:16 PM 84.2 °F 88.4 °F 69.8 °F 62% 29.77 in 10.0 mi SSW 8.1 mph - N/A   Scattered Clouds
6:36 PM 84.2 °F 88.4 °F 69.8 °F 62% 29.77 in 10.0 mi SW 4.6 mph - N/A   Scattered Clouds
6:56 PM 82.4 °F 86.3 °F 69.8 °F 66% 29.76 in 10.0 mi SW 6.9 mph - N/A   Mostly Cloudy
7:16 PM 82.4 °F 86.3 °F 69.8 °F 66% 29.76 in 10.0 mi SW 4.6 mph - N/A   Mostly Cloudy
7:36 PM 80.6 °F 83.9 °F 69.8 °F 70% 29.74 in 10.0 mi SSW 6.9 mph - N/A   Scattered Clouds
7:56 PM 80.6 °F 83.9 °F 69.8 °F 70% 29.76 in 10.0 mi Calm Calm - N/A   Scattered Clouds
8:16 PM 78.8 °F - 69.8 °F 74% 29.74 in 10.0 mi SW 3.5 mph - N/A   Scattered Clouds
8:36 PM 78.8 °F - 69.8 °F 74% 29.75 in 10.0 mi SSW 3.5 mph - N/A   Clear
8:56 PM 78.8 °F - 69.8 °F 74% 29.78 in 10.0 mi WNW 16.1 mph 28.8 mph N/A Rain Rain
9:16 PM 71.6 °F - 69.8 °F 94% 29.79 in 7.0 mi West 5.8 mph 23.0 mph N/A Rain Light Rain
9:36 PM 71.6 °F - 69.8 °F 94% 29.80 in 10.0 mi West 9.2 mph 16.1 mph N/A   Drizzle
9:56 PM 71.6 °F - 71.6 °F 100% 29.80 in 10.0 mi WNW 6.9 mph - N/A   Light Drizzle
10:16 PM 71.6 °F - 71.6 °F 100% 29.79 in 5.0 mi WNW 6.9 mph - N/A Rain Heavy Rain
10:36 PM 71.6 °F - 69.8 °F 94% 29.78 in 10.0 mi Calm Calm - N/A   Mostly Cloudy
10:56 PM 69.8 °F - 69.8 °F 100% 29.79 in 10.0 mi Calm Calm - N/A   Clear
11:16 PM 69.8 °F - 69.8 °F 100% 29.78 in 4.0 mi West 3.5 mph - N/A   Scattered Clouds
11:36 PM 68.0 °F - 68.0 °F 100% 29.79 in 4.0 mi SSW 5.8 mph - N/A   Scattered Clouds
11:56 PM 69.8 °F - 69.8 °F 100% 29.79 in 5.0 mi SSW 5.8 mph - N/A   Scattered Clouds